HYSIS

Last updated on Tue Jul 08 2025 00:02:30 GMT+0000 (Coordinated Universal Time)

1 43719U 18096A 25188.56382421 .00000937 13900-9 12812-3 0 9991 2 43719 98.0296 252.1079 0001847 121.3421 238.7970 14.78635925356493
UTC large
Height (km)
Speed (km/s)
/
Latitude / Longitude
Inclination (degrees)
Orbital Period (minutes)
Azimuth
Elevation
Range (km)
Doppler Factor

Next 0 passes for location: London (51.5072 / 0.1276)

Sorry there are no passes over London.